Home > Weather > Vejle > Past weeks

Flag for Denmark Past Weather in Vejle, Denmark — Yesterday and Last 2 Weeks

Now
59 °F

Passing clouds.


Feels Like: 58 °F
Forecast: 54 / 63 °F
Wind: 8 mph from East

Location: Billund Lufthavn

Current Time: Aug 28, 2016 at 2:33:13 AM

Latest Report: Aug 28, 2016 at 1:50 AM


Visibility: N/A

Pressure: 30.01 "Hg

Humidity: 72%

Dew Point: 50 °F

Location of VejleLocation

Past Weather in Vejle — Graph

°F

Vejle Temperature Yesterday

Maximum temperature yesterday: 72 °F (at 3:20 PM)
Minimum temperature yesterday: 45 °F (at 5:50 AM)
Average temperature yesterday: 61 °F

High & Low Weather Summary for the Past Weeks

 TemperatureHumidityPressure
High84 °F (Aug 25, 1:50 PM)100% (Aug 13, 3:50 AM)30.30 "Hg (Aug 13, 3:50 AM)
Low41 °F (Aug 17, 5:20 AM)43% (Aug 17, 12:20 PM)29.77 "Hg (Aug 20, 7:50 AM)
Average62 °F81%30.05 "Hg
* Reported Aug 13 1:20 AM — Aug 28 1:20 AM, Vejle, Weather by CustomWeather, © 2016

Note: Actual official high and low records may vary slightly from our data, if they occured in-between our weather recording intervals... More about our weather records

Advertising

Vejle Weather History for the Previous 24 Hours

Scroll right to see more
 ConditionsComfort  
Time TempWeatherWind HumidityBarometerVisibility
1:20 AM
Sun, Aug 28
55 °FCool.8 mph77%30.04 "HgN/A
12:50 AM52 °FCool.7 mph82%30.07 "HgN/A
12:20 AM55 °FCool.5 mph82%30.07 "HgN/A
11:50 PM
Sat, Aug 27
55 °FCool.6 mph82%30.09 "HgN/A
11:20 PM57 °FCool.5 mph77%30.09 "HgN/A
10:50 PM57 °FCool.3 mph82%30.09 "HgN/A
10:20 PM59 °FCool.No wind77%30.12 "HgN/A
9:50 PM59 °FCool.1 mph77%30.12 "HgN/A
9:20 PM59 °FCool.2 mph77%30.12 "HgN/A
8:50 PM61 °FCool.3 mph72%30.12 "HgN/A
8:20 PM63 °FMild.3 mph68%30.12 "HgN/A
7:50 PM64 °FMild.6 mph64%30.12 "HgN/A
7:20 PM68 °FMild.3 mph60%30.12 "HgN/A
6:50 PM68 °FMild.5 mph56%30.12 "HgN/A
6:20 PM70 °FMild.7 mph57%30.12 "HgN/A
5:50 PM70 °FMild.6 mph53%30.15 "HgN/A
5:20 PM68 °FMild.6 mph56%30.15 "HgN/A
4:50 PM70 °FScattered clouds.3 mph50%30.15 "HgN/A
4:20 PM70 °FMild.5 mph50%30.18 "HgN/A
3:50 PM72 °FMild.5 mph44%30.15 "HgN/A
3:20 PM72 °FPassing clouds.5 mph47%30.18 "HgN/A
2:50 PM70 °FMild.3 mph46%30.18 "HgN/A
2:20 PM70 °FPassing clouds.2 mph50%30.18 "HgN/A
1:50 PM66 °FPartly sunny.7 mph56%30.18 "HgN/A
1:20 PM70 °FMild.5 mph50%30.18 "HgN/A
12:50 PM66 °FMild.5 mph56%30.18 "HgN/A
12:20 PM68 °FMild.3 mph56%30.18 "HgN/A
11:50 AM68 °FPassing clouds.3 mph56%30.18 "HgN/A
11:20 AM66 °FMild.6 mph64%30.18 "HgN/A
10:50 AM66 °FMild.5 mph64%30.18 "HgN/A
10:20 AM64 °FMild.6 mph73%30.18 "HgN/A
9:50 AM63 °FMild.6 mph77%30.18 "HgN/A
9:20 AM63 °FMild.3 mph77%30.18 "HgN/A
8:50 AM61 °FCool.1 mph83%30.18 "HgN/A
8:20 AM57 °FSunny.No wind88%30.18 "Hg10 mi
7:50 AM52 °FLight fog.2 mph94%30.15 "HgN/A
7:20 AM48 °FLight fog.1 mph100%30.15 "Hg2 mi
6:50 AM45 °FLight fog.2 mph100%30.15 "Hg1 mi
6:20 AM45 °FLight fog.1 mph100%30.15 "Hg1 mi
5:50 AM45 °FClear.1 mph100%30.12 "Hg1 mi
5:20 AM50 °FClear.No wind100%30.12 "Hg0 mi
5:02 AM52 °FClear.2 mph100%30.12 "Hg1 mi
4:50 AM52 °FFog.1 mph100%30.12 "Hg0 mi
4:20 AM54 °FFog.3 mph94%30.12 "Hg0 mi
3:50 AM54 °FFog.6 mph94%30.12 "Hg0 mi
3:20 AM55 °FLight fog.6 mph100%30.12 "Hg1 mi
2:50 AM55 °FLight fog.5 mph94%30.12 "Hg0 mi
2:20 AM57 °FFog.5 mph94%30.12 "HgN/A
Weather by CustomWeather, © 2016

See weather overviewHow to use our weather pages